Location: Unspecified
(0.0000°N, 0.0000°E)
Time: 18:18:46
(UTC+00:00)

STARLINK 1020 - Pass Details

Date: 19 January 2020
Orbit: 437 x 439 km, 53.0° (Epoch: 17 January)

Event Time Altitude Azimuth Distance (km) Brightness Sun altitude
Rises 18:06:51 0° 286° (WNW) 2,407 7.9 0.8°
Enters shadow 18:38:41 -49° 137° (SE) 10,133 9.9 -6.6°
Exits shadow 18:49:51 -68° 115° (ESE) 12,291 10.4 -9.2°
Maximum altitude 04:13:39 21° 124° (SE) 1,019 5.7 -27.2°
